EST,Max TemperatureF,Mean TemperatureF,Min TemperatureF,Max Dew PointF,MeanDew PointF,Min DewpointF,Max Humidity, Mean Humidity, Min Humidity, Max Sea Level PressureIn, Mean Sea Level PressureIn, Min Sea Level PressureIn, Max VisibilityMiles, Mean VisibilityMiles, Min VisibilityMiles, Max Wind SpeedMPH, Mean Wind SpeedMPH, Max Gust SpeedMPH,PrecipitationIn, CloudCover, Events, WindDirDegrees
2013-12-1,34,32,29,33,27,23,100,86,72,30.12,30.07,30.02,10,8,3,16,6,19,0.01,8,,340
2013-12-2,33,24,14,24,21,11,88,76,63,30.03,29.97,29.91,10,10,10,9,3,10,T,6,,303
2013-12-3,32,20,8,30,23,5,100,89,78,30.03,29.97,29.93,10,6,1,15,4,20,0.11,7,Snow,73
2013-12-4,42,37,31,41,35,30,100,96,92,29.96,29.85,29.51,9,2,0,20,10,25,0.47,8,Fog-Rain-Snow,94
2013-12-5,49,37,24,46,31,12,100,74,47,30.05,29.67,29.47,10,8,2,24,14,34,T,6,,231
2013-12-6,24,21,18,13,11,8,80,65,50,30.35,30.21,30.02,10,10,9,21,8,32,T,7,Snow,273
2013-12-7,23,18,12,13,8,3,88,68,47,30.57,30.48,30.35,10,10,7,20,9,28,T,6,Snow,256
2013-12-8,26,17,8,22,12,4,92,77,62,30.57,30.35,30.05,10,7,2,15,5,19,0.07,7,Snow,148
2013-12-9,30,22,13,27,19,5,100,81,61,30.03,29.86,29.73,10,6,1,23,11,34,0.09,7,Snow,211
2013-12-10,17,11,5,9,5,-1,83,71,59,30.04,29.92,29.77,10,8,2,18,10,28,0.01,6,Snow,223
2013-12-11,15,10,4,11,6,0,92,77,61,30.35,30.18,30.00,10,6,0,14,8,20,0.04,6,Fog-Snow,265
2013-12-12,19,12,4,11,4,-2,91,74,56,30.34,30.16,30.02,10,10,5,22,9,29,T,5,Snow,242
2013-12-13,18,10,2,12,4,-1,86,74,61,30.45,30.25,29.99,10,8,2,18,8,24,T,6,Snow,334
2013-12-14,21,14,6,18,13,2,92,83,73,30.44,30.19,29.86,10,3,0,18,9,27,0.27,8,Fog-Snow,69
2013-12-15,21,16,11,18,14,10,96,85,73,29.95,29.76,29.65,10,3,0,15,5,22,0.16,8,Fog-Snow,319
2013-12-16,15,5,-5,12,3,-7,92,77,61,30.20,30.08,29.91,10,8,1,13,4,18,0.01,4,Snow,286
2013-12-17,23,16,9,19,14,7,96,88,80,30.01,29.89,29.79,10,6,2,13,6,15,0.07,8,Snow,202
2013-12-18,24,19,14,21,17,13,92,80,68,30.04,29.94,29.81,10,7,1,13,6,18,0.01,7,Snow,241
2013-12-19,30,22,14,24,19,12,88,80,71,30.09,29.94,29.75,10,10,10,12,5,15,T,6,,283
2013-12-20,27,25,22,24,22,19,96,89,81,30.01,29.93,29.85,10,3,1,17,10,20,0.34,8,Snow,29
2013-12-21,26,25,24,22,22,21,88,85,81,30.01,29.92,29.83,10,10,5,17,8,23,T,8,Snow,7
2013-12-22,25,20,14,22,18,11,92,88,84,30.07,29.85,29.77,10,2,0,23,13,30,0.36,8,Fog-Snow,35
2013-12-23,16,10,3,11,8,0,92,83,73,30.37,30.22,30.07,10,5,2,12,5,14,0.02,8,Snow,317
2013-12-24,11,-2,-16,3,-2,-21,88,76,63,30.55,30.45,30.34,10,7,2,12,4,14,T,6,Snow,313
2013-12-25,22,3,-17,18,8,-21,95,84,73,30.50,30.24,30.05,10,6,1,22,9,29,0.08,7,Snow,179
2013-12-26,24,20,15,20,16,11,92,77,62,30.22,30.09,29.98,10,6,2,14,3,18,0.01,8,Snow,241
2013-12-27,34,15,-4,28,12,-6,96,78,60,30.27,30.14,29.88,10,9,6,17,7,24,T,5,,213
2013-12-28,39,31,23,30,28,24,100,85,70,30.01,29.89,29.78,10,6,0,14,5,18,0.00,4,Fog,191
2013-12-29,31,20,8,31,18,1,100,87,73,30.04,29.79,29.67,10,4,1,22,10,29,T,7,Rain-Snow,330
2013-12-30,15,4,-8,5,0,-9,91,72,53,30.27,30.17,30.00,10,10,2,13,5,18,T,7,Snow,236
2013-12-31,14,7,0,5,2,-6,83,68,53,30.32,30.10,29.96,10,8,2,21,7,30,0.01,7,Snow,253